Location: Unspecified
(50.0077°N, 36.2988°E)
Time: 20:15:12
(UTC+00:00)

ISS - Pass Details

Date: 28 September 2020
Orbit: 417 x 420 km, 51.6° (Epoch: 27 October)

Event Time Altitude Azimuth Distance (km) Brightness Sun altitude
Rises 16:42:33 0° 281° (W) 2,369 2.1 -14.2°
Reaches altitude 10° 16:44:40 10° 284° (WNW) 1,505 0.5 -14.5°
Maximum altitude 16:48:02 69° 8° (N) 454 -3.6 -15.0°
Enters shadow 16:49:23 33° 83° (E) 733 -3.1 -15.2°
